QPF
0.01 0.01 0.00 0.00 0.00 0.00 0.00 0.00 0.00 0.00 0.00 0.00 0.00 0.00 0.00 0.00 0.00 0.00 0.00 0.00 0.00 0.00 0.00 0.00 0.00 0.00 0.01 0.01 0.00 0.00 0.00 0.00 0.00 0.00 0.00 0.00 0.00 0.00 0.00 0.00 0.00 0.00 0.00 0.00 0.00
0.01 0.01 0.00 0.00 0.00 0.00 0.00 0.00 0.00 0.00 0.00 0.00 0.00 0.00 0.00 0.01 0.00 0.00 0.00 0.00 0.00 0.00 0.00 0.00 0.00 0.00 0.01 0.01 0.00 0.00 0.00 0.00 0.00 0.00 0.00 0.00 0.00 0.00 0.00 0.00 0.00 0.00 0.00 0.00 0.00
0.01 0.01 0.00 0.00 0.00 0.00 0.00 0.00 0.00 0.00 0.00 0.00 0.00 0.00 0.00 0.01 0.00 0.00 0.00 0.00 0.00 0.00 0.00 0.00 0.00 0.00 0.01 0.01 0.01 0.00 0.00 0.00 0.00 0.00 0.00 0.00 0.00 0.00 0.00 0.00 0.00 0.00 0.00 0.00 0.00
0.01 0.00 0.00 0.00 0.00 0.00 0.00 0.00 0.00 0.00 0.00 0.00 0.00 0.00 0.01 0.00 0.00 0.00 0.00 0.00 0.00 0.00 0.00 0.00 0.00 0.01 0.01 0.01 0.00 0.00 0.00 0.00 0.00 0.00 0.00 0.00 0.00 0.00 0.00 0.00 0.00 0.00 0.00 0.00 0.00
0.01 0.00 0.00 0.00 0.00 0.00 0.00 0.00 0.00 0.00 0.00 0.00 0.00 0.00 0.02 0.01 0.00 0.00 0.00 0.00 0.00 0.00 0.00 0.00 0.00 0.00 0.00 0.01 0.01 0.00 0.00 0.00 0.00 0.00 0.00 0.00 0.00 0.00 0.00 0.00 0.00 0.00 0.00 0.00 0.00
0.00 0.00 0.00 0.00 0.00 0.00 0.00 0.00 0.00 0.00 0.00 0.00 0.00 0.00 0.01 0.00 0.00 0.00 0.00 0.00 0.00 0.00 0.00 0.00 0.00 0.00 0.00 0.01 0.01 0.00 0.00 0.00 0.00 0.00 0.00 0.00 0.00 0.00 0.00 0.00 0.00 0.00 0.00 0.00 0.00
0.00 0.00 0.00 0.00 0.00 0.00 0.00 0.00 0.00 0.00 0.00 0.00 0.00 0.00 0.01 0.00 0.00 0.00 0.00 0.00 0.00 0.00 0.00 0.00 0.00 0.00 0.00 0.01 0.01 0.02 0.01 0.01 0.00 0.00 0.00 0.00 0.00 0.00 0.00 0.00 0.00 0.00 0.00 0.00 0.00
0.00 0.00 0.00 0.00 0.00 0.00 0.00 0.00 0.00 0.00 0.00 0.00 0.00 0.01 0.01 0.00 0.00 0.00 0.00 0.00 0.00 0.00 0.00 0.00 0.00 0.00 0.00 0.00 0.00 0.01 0.02 0.02 0.00 0.00 0.00 0.00 0.00 0.00 0.00 0.00 0.00 0.00 0.00 0.00 0.00
0.00 0.00 0.00 0.00 0.00 0.00 0.00 0.00 0.00 0.00 0.00 0.00 0.03 0.06 0.02 0.00 0.00 0.00 0.00 0.00 0.00 0.01 0.02 0.01 0.05 0.04 0.02 0.01 0.01 0.01 0.01 0.01 0.00 0.00 0.00 0.00 0.00 0.00 0.00 0.00 0.00 0.00 0.00 0.00 0.00
0.00 0.00 0.00 0.00 0.00 0.00 0.00 0.00 0.00 0.00 0.00 0.01 0.04 0.04 0.01 0.00 0.00 0.00 0.00 0.00 0.01 0.05 0.09 0.08 0.08 0.05 0.03 0.02 0.01 0.00 0.01 0.00 0.00 0.00 0.00 0.00 0.00 0.00 0.00 0.00 0.00 0.00 0.00 0.00 0.00
0.00 0.00 0.00 0.00 0.00 0.00 0.00 0.00 0.00 0.00 0.00 0.00 0.00 0.00 0.00 0.00 0.00 0.00 0.00 0.00 0.01 0.07 0.07 0.08 0.08 0.02 0.03 0.01 0.00 0.00 0.00 0.00 0.00 0.00 0.00 0.00 0.00 0.00 0.00 0.00 0.00 0.00 0.00 0.00 0.00
0.00 0.00 0.00 0.00 0.00 0.00 0.00 0.00 0.00 0.00 0.00 0.00 0.00 0.00 0.00 0.00 0.01 0.00 0.00 0.00 0.00 0.02 0.05 0.14 0.28 0.06 0.01 0.01 0.01 0.00 0.00 0.00 0.00 0.00 0.00 0.00 0.00 0.00 0.00 0.00 0.00 0.00 0.00 0.00 0.00
0.00 0.00 0.00 0.00 0.00 0.00 0.00 0.00 0.00 0.00 0.00 0.00 0.00 0.00 0.00 0.00 0.04 0.02 0.00 0.01 0.00 0.00 0.02 0.08 0.06 0.10 0.18 0.08 0.05 0.04 0.01 0.00 0.00 0.00 0.00 0.00 0.00 0.00 0.00 0.00 0.00 0.00 0.00 0.00 0.00
0.00 0.00 0.00 0.00 0.00 0.00 0.00 0.00 0.00 0.00 0.01 0.00 0.00 0.00 0.00 0.00 0.03 0.02 0.01 0.05 0.01 0.00 0.00 0.02 0.01 0.03 0.09 0.24 0.17 0.14 0.05 0.03 0.03 0.01 0.01 0.00 0.01 0.00 0.00 0.00 0.00 0.00 0.00 0.00 0.00
0.00 0.00 0.00 0.00 0.00 0.00 0.00 0.00 0.00 0.00 0.01 0.00 0.00 0.00 0.00 0.01 0.02 0.00 0.00 0.06 0.13 0.04 0.02 0.04 0.00 0.02 0.04 0.01 0.10 0.18 0.12 0.14 0.13 0.09 0.07 0.02 0.01 0.00 0.00 0.00 0.00 0.00 0.00 0.00 0.00
0.00 0.00 0.00 0.00 0.00 0.00 0.00 0.00 0.00 0.00 0.00 0.00 0.00 0.00 0.00 0.00 0.00 0.00 0.00 0.01 0.08 0.08 0.04 0.07 0.02 0.00 0.01 0.00 0.01 0.05 0.06 0.09 0.17 0.17 0.16 0.03 0.00 0.00 0.00 0.00 0.00 0.00 0.00 0.00 0.00
0.00 0.00 0.00 0.00 0.00 0.00 0.00 0.00 0.00 0.00 0.00 0.00 0.00 0.00 0.01 0.00 0.00 0.00 0.01 0.00 0.02 0.08 0.15 0.15 0.15 0.06 0.01 0.01 0.02 0.02 0.01 0.05 0.11 0.15 0.06 0.00 0.01 0.00 0.00 0.00 0.00 0.00 0.00 0.00 0.00
0.00 0.00 0.00 0.00 0.00 0.00 0.00 0.00 0.00 0.00 0.00 0.00 0.00 0.00 0.01 0.00 0.01 0.00 0.00 0.00 0.00 0.02 0.08 0.10 0.13 0.11 0.04 0.07 0.04 0.03 0.02 0.05 0.04 0.02 0.00 0.00 0.04 0.00 0.00 0.00 0.00 0.00 0.00 0.00 0.00
0.00 0.00 0.00 0.00 0.00 0.00 0.00 0.00 0.01 0.02 0.01 0.00 0.00 0.00 0.00 0.00 0.01 0.01 0.01 0.00 0.00 0.00 0.03 0.06 0.05 0.07 0.07 0.06 0.07 0.12 0.17 0.06 0.03 0.01 0.02 0.01 0.01 0.00 0.00 0.00 0.00 0.00 0.00 0.00 0.00
0.00 0.00 0.00 0.00 0.00 0.00 0.00 0.00 0.01 0.01 0.00 0.01 0.02 0.02 0.01 0.00 0.00 0.01 0.03 0.01 0.00 0.00 0.00 0.02 0.05 0.04 0.07 0.08 0.11 0.09 0.08 0.09 0.10 0.07 0.07 0.04 0.01 0.01 0.00 0.00 0.00 0.00 0.01 0.01 0.01
0.00 0.00 0.00 0.00 0.00 0.00 0.00 0.00 0.00 0.01 0.00 0.01 0.03 0.02 0.01 0.01 0.01 0.02 0.05 0.02 0.00 0.00 0.00 0.00 0.03 0.03 0.02 0.05 0.08 0.09 0.10 0.11 0.09 0.05 0.06 0.03 0.03 0.01 0.00 0.00 0.00 0.01 0.01 0.01 0.01
0.00 0.00 0.00 0.00 0.00 0.00 0.00 0.00 0.00 0.01 0.01 0.01 0.03 0.01 0.01 0.02 0.01 0.05 0.06 0.03 0.00 0.00 0.00 0.00 0.00 0.02 0.05 0.04 0.03 0.03 0.05 0.05 0.07 0.04 0.01 0.02 0.02 0.00 0.00 0.00 0.00 0.01 0.01 0.02 0.02
0.00 0.00 0.00 0.00 0.00 0.00 0.00 0.00 0.00 0.00 0.00 0.01 0.01 0.00 0.00 0.01 0.03 0.06 0.03 0.02 0.00 0.00 0.00 0.00 0.00 0.00 0.04 0.02 0.00 0.00 0.01 0.03 0.06 0.02 0.01 0.01 0.01 0.01 0.01 0.01 0.01 0.01 0.02 0.02 0.04
0.00 0.00 0.00 0.00 0.00 0.00 0.00 0.00 0.00 0.00 0.00 0.00 0.01 0.00 0.00 0.00 0.00 0.01 0.00 0.00 0.00 0.00 0.00 0.00 0.00 0.00 0.00 0.00 0.00 0.00 0.00 0.00 0.01 0.01 0.01 0.00 0.00 0.01 0.01 0.01 0.02 0.02 0.02 0.03 0.05
0.00 0.00 0.00 0.00 0.00 0.00 0.00 0.00 0.00 0.00 0.00 0.00 0.00 0.00 0.01 0.00 0.00 0.00 0.00 0.00 0.00 0.00 0.00 0.00 0.00 0.00 0.00 0.00 0.00 0.00 0.00 0.00 0.01 0.01 0.01 0.01 0.00 0.00 0.00 0.01 0.01 0.01 0.02 0.02 0.04
0.00 0.00 0.00 0.00 0.00 0.00 0.00 0.00 0.00 0.00 0.00 0.00 0.00 0.00 0.00 0.01 0.02 0.01 0.01 0.01 0.00 0.00 0.00 0.00 0.00 0.00 0.00 0.00 0.00 0.00 0.00 0.00 0.02 0.02 0.02 0.00 0.01 0.00 0.01 0.01 0.02 0.02 0.01 0.01 0.02
0.00 0.00 0.00 0.00 0.00 0.00 0.00 0.00 0.00 0.00 0.00 0.00 0.01 0.00 0.00 0.00 0.00 0.00 0.00 0.00 0.00 0.01 0.00 0.00 0.00 0.00 0.00 0.00 0.00 0.00 0.00 0.00 0.04 0.04 0.01 0.03 0.02 0.01 0.01 0.01 0.01 0.02 0.02 0.01 0.01
MSLP
1017.76 1017.25 1016.74 1016.22 1015.72 1015.17 1014.56 1014.02 1013.49 1012.92 1012.44 1012.03 1011.57 1011.15 1010.70 1010.40 1010.23 1009.92 1008.83 1007.55 1008.00 1008.49 1008.39 1008.49 1008.47 1008.01 1008.05 1008.20 1007.78 1007.72 1006.52 1004.29 1003.86 1003.14 1001.46 1002.27 1002.70 1003.95 1004.31 1004.10 1004.28 1005.29 1005.71 1007.38 1008.15
1017.77 1017.26 1016.71 1016.04 1015.44 1014.86 1014.25 1013.67 1013.12 1012.64 1012.11 1011.66 1011.17 1010.77 1010.24 1010.03 1009.42 1007.81 1006.27 1006.71 1007.15 1007.64 1008.17 1007.34 1007.35 1007.40 1007.75 1007.62 1007.81 1006.63 1005.20 1003.41 1003.29 1002.37 1002.18 1002.34 1003.09 1003.33 1004.28 1004.06 1004.16 1005.36 1007.32 1008.34 1008.59
1017.49 1016.90 1016.45 1015.93 1015.22 1014.60 1013.93 1013.27 1012.69 1012.13 1011.59 1011.10 1010.68 1010.39 1009.89 1009.74 1008.75 1004.90 1004.51 1005.00 1006.15 1006.93 1007.46 1006.89 1007.13 1007.42 1007.21 1007.21 1006.64 1006.29 1003.90 1004.11 1003.01 1002.44 1002.30 1002.29 1003.10 1003.18 1003.58 1003.30 1003.75 1004.86 1006.38 1007.93 1008.57
1017.37 1016.82 1016.17 1015.54 1014.85 1014.16 1013.47 1012.76 1012.08 1011.47 1010.91 1010.37 1010.10 1009.90 1009.53 1009.38 1007.00 1004.47 1005.13 1005.07 1004.92 1006.15 1006.61 1006.68 1006.35 1006.31 1006.54 1005.72 1006.13 1005.70 1004.86 1004.61 1003.55 1002.95 1002.78 1002.97 1002.77 1002.98 1003.27 1002.78 1003.39 1004.08 1005.32 1007.23 1007.97
1017.17 1016.60 1016.13 1015.48 1014.69 1013.86 1013.04 1012.27 1011.39 1010.57 1009.90 1009.51 1009.30 1009.19 1009.07 1007.93 1005.63 1004.74 1004.99 1005.25 1005.23 1005.71 1005.24 1005.04 1005.15 1005.20 1004.98 1005.26 1005.74 1005.01 1004.70 1004.35 1004.31 1003.55 1003.30 1003.65 1003.31 1003.04 1003.17 1003.06 1003.87 1004.63 1005.54 1006.63 1007.48
1017.25 1016.78 1016.14 1015.36 1014.43 1013.45 1012.46 1011.48 1010.40 1009.56 1008.99 1008.60 1008.48 1008.57 1008.23 1006.27 1004.79 1005.07 1005.34 1005.26 1004.73 1005.20 1005.08 1004.80 1004.06 1003.96 1004.56 1004.63 1004.64 1004.68 1005.30 1004.56 1004.38 1004.12 1004.08 1004.17 1003.94 1003.50 1003.17 1003.37 1004.11 1005.15 1005.67 1006.27 1006.94
1017.24 1016.53 1015.82 1014.93 1013.98 1013.01 1011.95 1010.63 1009.58 1008.69 1007.88 1007.44 1007.40 1007.58 1007.00 1005.04 1004.52 1004.56 1004.69 1005.10 1004.58 1004.38 1004.31 1004.25 1004.18 1003.62 1004.40 1004.39 1004.53 1004.96 1005.10 1005.26 1004.44 1004.55 1004.19 1004.78 1003.82 1003.13 1003.52 1003.31 1003.81 1005.04 1005.47 1006.19 1006.84
1017.33 1016.46 1015.56 1014.57 1013.58 1012.59 1011.65 1010.27 1009.16 1008.19 1007.40 1006.62 1006.22 1006.64 1005.57 1004.31 1004.80 1004.90 1004.58 1004.24 1004.36 1004.35 1004.12 1003.94 1004.05 1004.00 1003.16 1003.29 1003.65 1004.09 1004.95 1004.18 1004.19 1004.87 1004.75 1004.85 1002.36 1003.51 1003.59 1003.34 1003.49 1004.43 1005.18 1005.89 1006.66
1017.32 1016.57 1015.53 1014.38 1013.26 1012.30 1011.37 1009.96 1008.65 1007.92 1006.70 1005.89 1005.94 1005.77 1005.10 1004.77 1005.17 1005.15 1004.73 1003.97 1003.35 1003.65 1003.97 1003.81 1004.23 1003.91 1003.64 1003.15 1004.01 1003.50 1002.61 1003.47 1003.81 1004.21 1004.51 1004.25 1003.03 1003.12 1002.61 1002.92 1003.36 1003.72 1004.48 1005.20 1006.39
1017.34 1016.44 1015.38 1014.24 1013.17 1012.32 1011.27 1009.45 1008.28 1007.93 1006.88 1005.42 1006.32 1006.52 1006.05 1006.06 1005.70 1005.16 1004.57 1003.99 1003.24 1002.99 1003.57 1003.61 1003.64 1003.40 1003.35 1002.64 1000.50 1001.79 1002.80 1002.54 1002.55 1002.92 1003.45 1002.93 1002.81 1002.62 1002.39 1002.37 1003.09 1003.44 1003.97 1004.62 1005.64
1017.13 1016.21 1015.13 1014.00 1012.99 1012.38 1010.96 1009.29 1009.30 1008.27 1009.39 1009.23 1009.10 1008.50 1007.25 1006.45 1005.45 1004.88 1004.19 1003.90 1003.60 1003.06 1002.89 1003.18 1002.43 1001.79 1001.40 1002.29 1002.81 1001.93 1001.65 1001.83 1001.36 1002.05 1002.16 1002.08 1002.48 1002.54 1002.77 1002.72 1002.91 1003.13 1003.62 1004.16 1004.90
1017.06 1016.13 1015.04 1013.85 1013.00 1012.55 1011.67 1011.58 1012.85 1013.46 1011.74 1009.59 1009.29 1008.83 1007.62 1007.29 1006.51 1005.85 1006.13 1004.88 1003.72 1003.04 1002.75 1002.75 1001.49 1001.68 1002.22 1002.89 1002.96 1003.11 1001.98 1001.20 1001.04 1001.05 1001.69 1002.29 1001.88 1002.14 1002.42 1002.76 1003.58 1003.57 1003.52 1004.14 1005.34
1017.20 1016.15 1015.17 1013.97 1012.74 1012.35 1012.03 1012.47 1012.74 1012.87 1012.05 1009.15 1009.04 1008.59 1007.50 1006.90 1007.37 1006.89 1006.85 1006.30 1004.72 1002.84 1002.19 1001.59 1001.50 1002.28 1002.78 1002.28 1002.85 1002.58 1002.24 1001.79 1001.70 1002.39 1002.42 1002.58 1002.13 1001.88 1002.14 1003.18 1004.51 1004.77 1005.06 1005.93 1006.62
1017.28 1016.13 1015.02 1014.24 1012.60 1012.68 1011.80 1012.42 1012.45 1012.45 1011.02 1009.42 1008.43 1008.14 1007.40 1006.59 1006.86 1007.37 1007.23 1007.48 1005.18 1003.41 1002.62 1001.52 1001.11 1001.73 1002.54 1002.33 1002.70 1002.62 1002.24 1002.02 1002.31 1002.67 1002.15 1002.59 1001.54 1001.85 1002.41 1003.81 1005.62 1006.59 1007.40 1008.00 1008.45
1017.28 1016.22 1015.28 1014.10 1013.73 1012.39 1012.63 1012.15 1012.18 1012.23 1010.61 1010.09 1009.03 1008.37 1007.59 1007.31 1007.86 1007.07 1007.40 1006.78 1006.40 1005.29 1004.35 1002.65 1002.42 1001.94 1002.34 1002.20 1003.36 1002.74 1003.09 1002.98 1003.18 1003.09 1002.32 1002.63 1002.67 1000.79 1002.53 1004.48 1006.18 1007.41 1008.57 1009.34 1009.85
1017.07 1016.43 1015.45 1014.26 1013.36 1012.81 1012.23 1011.79 1011.79 1011.11 1011.11 1010.44 1010.03 1008.68 1007.79 1007.61 1007.73 1007.52 1007.53 1007.05 1007.15 1006.21 1005.04 1004.42 1004.47 1003.35 1003.06 1003.06 1003.15 1003.67 1003.92 1003.94 1003.77 1003.47 1002.59 1002.34 1002.98 1002.78 1004.58 1006.09 1007.82 1009.20 1010.19 1010.96 1011.43
1017.03 1016.45 1015.48 1014.64 1014.28 1012.88 1011.71 1010.95 1010.49 1011.83 1012.57 1011.99 1010.99 1009.69 1008.65 1008.61 1008.18 1008.05 1008.04 1007.97 1008.32 1007.43 1006.22 1005.22 1005.50 1005.49 1005.13 1004.16 1004.02 1004.47 1004.03 1004.04 1003.99 1003.13 1002.19 1002.65 1004.55 1005.52 1007.76 1008.96 1009.78 1010.55 1011.40 1012.48 1012.98
1017.15 1016.58 1015.56 1015.00 1014.23 1013.07 1011.79 1010.35 1012.06 1013.84 1013.85 1013.41 1012.01 1010.53 1009.44 1009.57 1009.14 1008.43 1008.83 1009.02 1009.59 1009.17 1007.99 1007.06 1006.59 1006.57 1006.54 1005.95 1005.09 1004.42 1003.67 1003.10 1002.81 1002.28 1002.26 1003.31 1005.16 1008.35 1010.26 1011.23 1011.75 1012.34 1012.95 1013.61 1014.08
1016.98 1016.26 1015.87 1015.49 1014.34 1013.02 1011.78 1012.90 1015.00 1015.48 1015.24 1014.08 1012.53 1011.61 1010.82 1010.41 1010.29 1009.36 1009.64 1010.32 1010.61 1010.32 1009.97 1008.86 1007.76 1007.50 1007.21 1006.87 1006.41 1005.13 1004.62 1004.39 1004.01 1002.63 1002.32 1004.04 1007.41 1009.66 1010.86 1011.91 1012.53 1013.30 1014.06 1014.50 1014.93
1017.39 1016.49 1016.68 1016.16 1014.90 1013.56 1013.62 1015.23 1016.15 1016.28 1015.75 1014.91 1014.00 1013.61 1012.44 1011.98 1011.37 1010.61 1010.67 1011.40 1011.32 1011.05 1010.57 1010.09 1008.84 1008.24 1007.83 1007.37 1006.98 1006.29 1005.75 1005.23 1004.89 1003.86 1003.61 1004.73 1007.02 1009.32 1011.18 1012.35 1013.06 1014.12 1014.81 1015.29 1015.69
1017.40 1016.42 1017.78 1016.57 1015.17 1014.99 1015.80 1016.84 1017.02 1016.93 1016.34 1015.89 1015.51 1014.77 1014.34 1013.85 1012.85 1012.37 1012.34 1012.27 1012.25 1011.38 1010.78 1010.60 1010.05 1009.24 1008.15 1009.20 1008.65 1007.48 1006.93 1006.27 1005.50 1005.06 1004.45 1005.52 1008.61 1010.70 1011.52 1012.60 1013.53 1014.62 1015.35 1015.84 1016.26
1017.99 1017.42 1018.66 1016.96 1015.96 1016.64 1017.11 1017.98 1017.88 1017.42 1017.09 1016.78 1016.51 1016.18 1015.72 1014.94 1014.03 1013.72 1013.55 1013.70 1013.31 1012.24 1011.65 1011.18 1010.91 1010.23 1010.51 1010.73 1010.19 1009.66 1009.25 1008.31 1007.29 1006.36 1005.70 1006.27 1010.34 1011.89 1012.41 1013.23 1014.09 1015.11 1015.83 1016.42 1016.83
1018.98 1018.87 1018.93 1017.80 1017.76 1018.11 1018.61 1018.82 1018.38 1018.20 1018.02 1017.72 1017.45 1017.31 1016.81 1016.00 1015.46 1015.28 1014.63 1014.51 1014.00 1013.26 1013.05 1012.60 1011.73 1011.05 1010.64 1011.03 1010.44 1010.58 1010.32 1009.70 1008.74 1007.82 1007.04 1007.63 1010.97 1012.44 1012.89 1013.81 1014.74 1015.46 1016.29 1016.85 1017.37
1019.76 1019.21 1019.06 1018.98 1019.98 1019.85 1019.66 1019.79 1019.20 1019.05 1018.97 1018.69 1018.42 1018.03 1017.68 1017.01 1016.72 1016.40 1015.77 1015.33 1014.79 1014.45 1013.81 1013.27 1013.15 1013.04 1012.72 1012.71 1012.59 1011.84 1011.12 1010.81 1009.90 1008.91 1008.85 1009.47 1011.42 1012.71 1013.41 1014.16 1015.20 1015.93 1016.59 1017.20 1017.74
1021.03 1021.46 1021.97 1020.81 1020.71 1020.65 1021.05 1021.04 1020.42 1020.03 1019.82 1019.31 1019.00 1019.20 1019.31 1018.66 1017.94 1017.58 1017.20 1016.25 1015.39 1015.59 1014.89 1014.68 1014.02 1013.96 1013.44 1013.22 1012.83 1012.42 1012.39 1012.02 1011.35 1011.17 1010.41 1010.64 1011.20 1012.54 1013.80 1014.75 1015.57 1016.34 1017.01 1017.62 1018.30
1022.20 1022.74 1022.50 1022.16 1021.91 1021.32 1021.77 1021.75 1021.45 1020.97 1020.67 1020.17 1020.31 1020.24 1019.93 1019.77 1019.97 1019.38 1018.98 1017.71 1016.97 1016.47 1015.74 1015.58 1014.84 1014.42 1013.67 1013.34 1013.05 1012.94 1013.17 1012.92 1012.86 1012.57 1011.88 1011.71 1012.46 1013.34 1014.45 1015.37 1016.14 1016.77 1017.41 1018.07 1018.81
1023.72 1023.63 1023.49 1023.09 1022.37 1022.14 1022.82 1022.61 1022.15 1021.81 1021.25 1021.16 1021.20 1020.76 1020.07 1020.23 1020.08 1019.63 1019.34 1018.67 1017.99 1017.35 1016.56 1016.30 1015.73 1014.76 1014.01 1013.59 1013.52 1013.92 1014.97 1014.91 1014.71 1014.59 1014.18 1013.54 1013.79 1014.50 1015.27 1015.85 1016.52 1017.24 1017.95 1018.61 1019.30
Thickness
5605 5607 5608 5609 5610 5612 5614 5616 5617 5619 5619 5620 5620 5621 5622 5623 5623 5626 5634 5636 5634 5628 5627 5624 5627 5631 5629 5621 5633 5635 5621 5637 5648 5658 5694 5696 5682 5683 5687 5682 5685 5690 5693 5686 5690
5602 5603 5605 5606 5608 5609 5611 5613 5614 5614 5615 5615 5616 5616 5618 5617 5620 5634 5641 5636 5632 5624 5620 5623 5622 5624 5612 5618 5614 5621 5624 5645 5667 5680 5678 5681 5674 5677 5667 5671 5672 5675 5671 5670 5678
5602 5603 5603 5603 5605 5606 5608 5610 5611 5611 5612 5612 5611 5610 5611 5609 5614 5645 5645 5640 5628 5620 5614 5619 5614 5609 5606 5608 5613 5618 5633 5647 5661 5674 5678 5672 5662 5672 5662 5661 5672 5667 5669 5665 5668
5600 5600 5601 5602 5602 5604 5604 5604 5605 5607 5608 5607 5605 5602 5602 5601 5617 5636 5627 5627 5626 5613 5608 5607 5607 5602 5598 5605 5613 5611 5627 5630 5647 5661 5660 5653 5668 5656 5659 5669 5675 5676 5674 5663 5665
5598 5597 5596 5597 5598 5600 5601 5602 5603 5604 5602 5601 5597 5593 5591 5595 5613 5614 5611 5607 5606 5601 5604 5605 5600 5600 5596 5605 5605 5602 5614 5624 5629 5642 5646 5645 5643 5649 5651 5665 5664 5663 5659 5657 5661
5592 5590 5590 5591 5593 5595 5597 5598 5600 5600 5598 5594 5587 5579 5577 5587 5602 5595 5588 5588 5592 5587 5588 5590 5598 5604 5591 5592 5592 5600 5596 5609 5615 5622 5625 5623 5627 5634 5645 5655 5648 5645 5646 5651 5655
5586 5585 5584 5585 5587 5589 5591 5594 5594 5592 5590 5586 5577 5568 5565 5581 5577 5573 5572 5568 5573 5576 5576 5579 5582 5583 5583 5578 5584 5583 5576 5581 5596 5605 5608 5611 5610 5617 5634 5644 5641 5637 5640 5641 5644
5577 5578 5580 5582 5582 5582 5580 5581 5580 5578 5573 5570 5563 5549 5547 5561 5548 5545 5546 5551 5552 5555 5559 5562 5562 5563 5574 5580 5574 5568 5561 5566 5583 5580 5589 5591 5605 5613 5626 5632 5633 5634 5634 5634 5634
5570 5570 5571 5571 5571 5569 5565 5563 5560 5552 5548 5541 5532 5524 5524 5520 5513 5511 5514 5522 5532 5533 5535 5539 5534 5542 5550 5552 5544 5556 5566 5558 5565 5575 5576 5580 5589 5609 5624 5624 5623 5629 5630 5630 5626
5562 5561 5559 5557 5554 5550 5546 5546 5535 5520 5515 5510 5493 5483 5479 5469 5475 5477 5482 5491 5503 5513 5508 5511 5514 5517 5527 5533 5554 5557 5544 5562 5560 5576 5576 5586 5586 5601 5613 5617 5615 5619 5623 5624 5620
5555 5552 5549 5544 5537 5528 5527 5523 5507 5499 5458 5444 5436 5436 5442 5443 5453 5456 5459 5470 5476 5484 5487 5491 5498 5507 5532 5535 5535 5555 5555 5554 5571 5568 5566 5575 5576 5584 5594 5597 5604 5611 5613 5614 5615
5546 5542 5536 5529 5518 5503 5491 5470 5437 5419 5413 5425 5413 5410 5420 5417 5418 5423 5425 5439 5458 5461 5487 5475 5486 5517 5520 5511 5519 5517 5540 5550 5561 5565 5558 5554 5568 5576 5581 5584 5585 5595 5604 5605 5601
5534 5527 5522 5512 5503 5484 5467 5443 5424 5408 5398 5420 5402 5395 5404 5408 5386 5398 5401 5400 5426 5463 5478 5484 5501 5495 5482 5510 5502 5513 5518 5535 5539 5536 5540 5541 5546 5562 5572 5568 5565 5572 5582 5582 5582
5521 5515 5506 5495 5491 5465 5451 5430 5413 5398 5397 5404 5401 5392 5395 5401 5389 5388 5389 5381 5415 5436 5464 5477 5497 5488 5471 5477 5490 5498 5520 5532 5527 5518 5523 5534 5535 5548 5561 5554 5548 5547 5548 5551 5554
5509 5501 5487 5475 5461 5455 5429 5416 5401 5386 5405 5389 5386 5384 5384 5383 5374 5386 5384 5389 5388 5398 5419 5450 5464 5477 5466 5490 5472 5484 5491 5507 5497 5509 5522 5514 5520 5562 5557 5547 5540 5536 5532 5528 5535
5499 5485 5477 5470 5450 5433 5420 5407 5397 5398 5366 5378 5369 5371 5377 5376 5372 5376 5374 5384 5374 5385 5410 5418 5422 5447 5463 5471 5479 5468 5472 5472 5475 5492 5502 5507 5522 5541 5537 5532 5502 5503 5503 5501 5508
5487 5472 5460 5443 5432 5428 5420 5412 5407 5368 5367 5355 5353 5364 5372 5361 5365 5365 5362 5364 5357 5375 5388 5404 5401 5403 5417 5449 5454 5453 5461 5473 5479 5490 5505 5517 5503 5508 5465 5460 5478 5483 5489 5477 5481
5475 5460 5444 5427 5417 5412 5409 5412 5367 5350 5341 5344 5349 5362 5364 5356 5357 5365 5356 5352 5351 5355 5364 5381 5398 5390 5393 5407 5433 5450 5478 5489 5477 5496 5510 5500 5493 5468 5423 5432 5438 5451 5458 5458 5462
5467 5453 5438 5422 5412 5403 5404 5366 5330 5324 5327 5330 5347 5345 5352 5354 5349 5360 5350 5338 5337 5345 5339 5357 5380 5382 5388 5393 5407 5432 5443 5447 5455 5489 5511 5496 5443 5423 5423 5425 5431 5434 5436 5441 5446
5460 5449 5424 5406 5398 5394 5380 5339 5327 5327 5326 5328 5322 5326 5328 5329 5335 5346 5343 5332 5327 5336 5345 5348 5366 5374 5381 5390 5398 5411 5419 5440 5444 5463 5477 5484 5478 5459 5416 5417 5420 5418 5418 5421 5427
5456 5447 5409 5400 5394 5382 5346 5327 5323 5323 5324 5316 5309 5316 5316 5309 5325 5326 5320 5324 5320 5329 5341 5343 5349 5364 5390 5368 5377 5399 5404 5414 5434 5444 5477 5473 5437 5401 5415 5413 5413 5406 5406 5410 5414
5449 5436 5399 5393 5385 5361 5340 5324 5323 5321 5319 5313 5312 5307 5304 5310 5316 5314 5312 5307 5316 5325 5321 5336 5337 5351 5348 5345 5358 5365 5372 5385 5407 5440 5453 5463 5413 5381 5396 5402 5402 5397 5396 5398 5403
5434 5418 5395 5389 5363 5346 5336 5323 5325 5317 5312 5307 5303 5301 5304 5307 5303 5302 5312 5309 5313 5317 5311 5315 5330 5343 5356 5350 5366 5356 5361 5370 5383 5397 5434 5455 5407 5376 5388 5390 5391 5391 5389 5390 5392
5426 5413 5394 5374 5348 5337 5328 5320 5318 5316 5306 5304 5301 5300 5295 5299 5301 5294 5301 5304 5309 5308 5315 5320 5317 5316 5321 5325 5335 5341 5358 5363 5373 5408 5410 5411 5380 5371 5378 5384 5381 5382 5383 5384 5385
5408 5383 5360 5360 5348 5338 5322 5312 5313 5306 5306 5308 5300 5290 5274 5273 5283 5284 5286 5293 5305 5297 5303 5300 5309 5306 5320 5322 5331 5336 5341 5352 5359 5365 5389 5394 5392 5380 5374 5373 5374 5372 5373 5375 5375
5399 5373 5360 5352 5343 5339 5321 5311 5306 5305 5302 5298 5285 5281 5279 5272 5263 5261 5260 5279 5281 5284 5293 5294 5304 5308 5315 5322 5328 5328 5331 5343 5346 5350 5370 5385 5375 5378 5370 5366 5364 5365 5366 5365 5364
5385 5369 5353 5343 5343 5336 5313 5306 5305 5302 5302 5297 5284 5279 5285 5275 5270 5271 5268 5273 5274 5273 5281 5280 5288 5299 5308 5321 5323 5326 5308 5317 5324 5329 5341 5361 5366 5363 5357 5359 5359 5357 5356 5355 5354